Location: Baili�vre
(50.0696°N, 4.2409°E)
Time: 06:31:01
(UTC+00:00)

Cosmos 1242 Rocket - Pass Details

Date: 08 August 2020
Orbit: 448 x 486 km, 81.2° (Epoch: 23 September)

Event Time Altitude Azimuth Distance (km) Brightness Sun altitude
Rises 23:41:14 0° 337° (NNW) 2,531 7.3 -24.1°
Reaches altitude 10° 23:43:34 10° 323° (NW) 1,654 6.0 -24.1°
Enters shadow 23:45:47 23° 288° (WNW) 1,072 4.4 -24.1°
